This is the latest recevied weather packets stored in our database for station/object KD8ZLZ. If no packets are shown the sender has not sent any weather packets the latest 10 day(s).
| Time | Temp. | Humidity | Pressure | Rain* | Wind** | Luminosity | Snow |
|---|---|---|---|---|---|---|---|
| 1777670131 | 10° C | 49% | 1014.5 hPa | 8.13 mm | - | - | - |
| 1777664131 | 10.56° C | 48% | 1014.2 hPa | 1.78 mm | - | - | - |
| 1777661430 | 10.56° C | 55% | 1014.2 hPa | 1.78 mm | - | - | - |
| 1777659631 | 10° C | 53% | 1014.2 hPa | 1.78 mm | - | - | - |
| 1777658730 | 10.56° C | 55% | 1014.2 hPa | 1.78 mm | - | - | - |
| 1777658131 | 9.44° C | 57% | 1014.2 hPa | 1.78 mm | - | - | - |
| 1777656331 | 8.89° C | 61% | 1014.2 hPa | 1.78 mm | - | - | - |
| 1777654851 | 10° C | 59% | 1014.2 hPa | 1.78 mm | - | - | - |
| 1777652732 | 8.33° C | 65% | 1014.2 hPa | 1.78 mm | - | - | - |
| 1777651231 | 7.78° C | 72% | 1014.2 hPa | 1.78 mm | - | - | - |
| 1777649430 | 7.78° C | 69% | 1014.6 hPa | 1.78 mm | - | - | - |
| 1777648530 | 8.33° C | 68% | 1014.3 hPa | 1.78 mm | - | - | - |
| 1777647931 | 7.78° C | 67% | 1013.9 hPa | 1.78 mm | - | - | - |
| 1777645230 | 7.22° C | 76% | 1014.3 hPa | 1.78 mm | - | - | - |
| 1777643730 | 7.22° C | 79% | 1014.3 hPa | 1.78 mm | - | - | - |
| 1777642830 | 6.11° C | 77% | 1014.3 hPa | 1.78 mm | - | - | - |
| 1777642251 | 6.11° C | 78% | 1014.3 hPa | 1.78 mm | - | - | - |
| 1777640430 | 5.56° C | 82% | 1014.6 hPa | 1.78 mm | - | - | - |
| 1777639830 | 5.56° C | 83% | 1014.6 hPa | 1.78 mm | - | - | - |
| 1777639231 | 5.56° C | 83% | 1014.2 hPa | 1.78 mm | - | - | - |
| 1777638931 | 5.56° C | 83% | 1014.2 hPa | 1.78 mm | - | - | - |
| 1777638330 | 5.56° C | 84% | 1014.2 hPa | 1.78 mm | - | - | - |
| 1777638030 | 5.56° C | 86% | 1013.9 hPa | 1.78 mm | - | - | - |
| 1777637431 | 5° C | 86% | 1013.9 hPa | 1.78 mm | - | - | - |
| 1777635930 | 5° C | 87% | 1014 hPa | 1.78 mm | - | - | - |
* Rain latest 24 hours (hover to see other rain measurements)
** Current wind speed in m/s (hover to see current wind gust speed)